User: anonymous   Login
Location: Unspecified
(0.0000°N, 0.0000°E)
Time: 16:15:45
(UTC+02:00)
Language:

SJ-6B - Orbit

View from above orbital plane
View from above orbital plane
View from above satellite
View from above satellite

Ground track
Ground track

The orbit data is extracted from the following two-line orbital elements,

1 28415U 04035C   15149.00636489  .00000916  00000-0  67837-4 0  9999
2 28415 097.7945 161.1898 0055511 141.8259 218.6918 15.04542575585702
Epoch (UTC): 29 May 2015 00:09:09
Eccentricity: 0.0055511
inclination: 97.7945°
perigee height: 514 km
apogee height: 591 km
right ascension of ascending node: 161.1898°
argument of perigee: 141.8259°
revolutions per day: 15.04542575
mean anomaly at epoch: 218.6918°
orbit number at epoch: 58570

The dashed part of the orbit path shows where the satellite is in the earth's shadow,  

DLR